Vertical_Velocity
6 -1 1 3 -2 -4 -0 1 1 2 1 -1 0 -2 0 1 0 -0 -1 -1 0 -1 0 -1 -0 -0 1 -1 -0 -0 -1 0 -1
-5 6 -2 -1 2 -3 -1 2 0 2 -1 0 -0 -0 -2 -1 -1 -1 -0 -1 -0 -1 -0 -1 0 -0 0 -1 0 0 -1 0 -1
-2 -4 -5 2 3 -5 -2 1 1 -0 0 -1 -1 -2 -2 -1 -0 -1 -1 -1 -1 0 -1 -1 -0 -1 -0 -0 -0 -0 0 1 -0
5 -2 2 1 -3 -0 -3 0 2 -0 0 -2 -2 -0 -1 -0 -2 0 0 -1 -0 -1 -1 -1 -1 -0 -0 -1 0 -0 0 -0 0
5 -0 0 1 -3 -1 -4 1 1 1 -2 -1 -4 -3 1 -0 -2 -1 0 -1 -0 -0 -0 -0 -1 -0 -1 0 -1 -0 -1 0 0
4 -2 1 -3 -2 -1 -4 -1 1 1 -1 -0 -2 -4 -1 -2 -1 0 -1 -1 -1 1 -1 -0 -0 -1 -1 -0 -0 -1 0 1 -0
-1 -1 0 -2 -0 0 -1 -2 2 -0 0 -2 -2 -2 -1 -2 -1 -1 -1 -1 -1 -0 -1 -1 -1 -1 -1 -1 -0 -1 -0 -0 -1
-7 -0 -3 -0 -4 -1 -2 -5 2 0 -3 -3 -3 -3 -1 -2 1 -1 -1 -1 -2 -1 -2 0 -1 -1 -0 1 -1 -2 -0 -1 -1
-5 3 -2 3 -1 -3 -0 -3 -0 -2 0 -3 -2 -1 -0 -1 -1 -1 -1 -0 -2 -1 -0 -1 -0 -1 -1 -1 -0 -3 -1 -1 -0
-0 2 -2 2 -1 -3 1 -2 -1 -1 0 -2 -1 -1 -0 -1 -1 -1 -2 -1 -1 -2 -1 -1 -2 -1 -1 -1 0 -2 -2 -2 -1
0 -1 1 0 1 -1 0 0 -2 -1 -2 -0 -1 -1 0 -1 -1 -1 -2 -2 -2 -1 -0 -1 -2 -1 -1 -1 -1 -1 -1 -1 -0
1 -0 -1 0 2 0 -1 -1 -1 -1 -2 1 -2 -1 -1 -1 -1 -1 -1 -1 -1 -1 -0 -1 -1 -1 -2 -1 -0 -1 -1 -1 -1
-0 1 1 -1 1 1 -1 -1 -1 -2 1 -0 -2 -3 -2 2 -1 1 -2 -0 -2 -1 -0 -0 -1 -1 -1 -1 -1 -1 -1 -1 -0
1 1 -0 -0 0 2 -0 -1 0 -4 1 -1 -1 0 -2 1 -2 1 0 -0 -1 -1 -1 -1 -1 -1 -1 -1 -0 0 -0 -1 -2
1 -2 2 -0 -1 1 1 -2 0 3 1 -1 0 -1 -0 -2 -1 2 -1 -1 0 -1 -1 -0 -1 -1 -1 -1 -0 0 -0 -1 -1
2 -1 -1 -0 0 4 4 -1 -1 1 -0 -2 -2 -1 1 -3 -1 1 -1 -0 -0 -0 -1 -0 -0 -2 -2 -1 -0 -0 0 -1 -1
-4 -2 -2 0 1 -3 -1 -0 -4 -1 -0 2 5 -3 -2 -4 -1 -1 -1 -0 -0 -0 -1 -1 -0 -1 -2 -1 -1 -0 -1 -1 -2
-2 -3 1 1 2 1 1 -1 -3 -1 -1 1 1 -5 -5 -2 -1 -1 -1 -0 -0 0 -1 -1 -1 -1 -1 -1 -1 -1 -1 -1 -2
-3 -3 -1 0 1 2 1 1 1 2 -1 0 -2 -6 5 1 -5 -2 -1 -0 0 1 -0 -1 -1 -1 -1 -0 -1 -1 -0 -2 -1
-2 2 2 -1 0 -3 4 -1 -2 0 -2 -4 5 -2 -2 -2 -2 1 -1 -0 -0 1 -0 -1 -0 -1 -0 -0 -0 -1 -1 -1 -1
Height
3143 3144 3147 3150 3152 3156 3158 3161 3163 3166 3168 3169 3171 3171 3173 3175 3176 3176 3177 3177 3178 3178 3178 3178 3177 3177 3176 3175 3174 3173 3171 3170 3169
3141 3142 3147 3150 3153 3155 3159 3161 3164 3165 3168 3169 3171 3172 3173 3175 3176 3177 3178 3178 3179 3179 3179 3179 3179 3178 3177 3176 3175 3174 3173 3172 3171
3139 3143 3147 3150 3153 3156 3159 3161 3164 3166 3168 3169 3171 3172 3173 3175 3177 3178 3179 3179 3179 3180 3180 3180 3180 3179 3179 3178 3177 3176 3175 3174 3173
3138 3142 3146 3150 3153 3155 3158 3161 3164 3166 3167 3169 3171 3172 3174 3176 3177 3178 3179 3180 3180 3181 3180 3181 3181 3180 3180 3179 3178 3177 3176 3175 3175
3136 3140 3145 3148 3151 3154 3157 3161 3163 3165 3167 3169 3170 3172 3174 3176 3177 3178 3180 3180 3181 3181 3181 3182 3182 3182 3181 3181 3180 3179 3178 3177 3176
3133 3138 3143 3146 3149 3153 3156 3160 3163 3165 3167 3168 3170 3172 3174 3176 3178 3179 3180 3181 3182 3182 3182 3182 3183 3183 3183 3182 3182 3181 3180 3179 3178
3132 3135 3140 3144 3148 3152 3155 3159 3162 3164 3166 3167 3169 3171 3175 3177 3179 3179 3180 3181 3182 3182 3183 3184 3184 3184 3184 3183 3183 3183 3181 3181 3180
3129 3133 3136 3141 3145 3150 3153 3157 3161 3163 3164 3166 3168 3171 3174 3177 3179 3180 3181 3182 3182 3183 3184 3185 3185 3185 3185 3185 3184 3184 3183 3182 3182
3126 3130 3134 3139 3143 3147 3151 3155 3158 3161 3164 3165 3168 3171 3174 3177 3179 3181 3181 3182 3183 3183 3185 3185 3185 3186 3186 3186 3185 3185 3185 3184 3183
3122 3127 3131 3136 3140 3145 3148 3153 3157 3160 3162 3165 3168 3171 3174 3176 3178 3180 3181 3182 3183 3184 3185 3186 3186 3187 3187 3187 3187 3186 3186 3185 3184
3119 3124 3127 3132 3137 3142 3146 3150 3155 3158 3161 3165 3167 3170 3174 3176 3178 3179 3181 3182 3183 3185 3186 3187 3187 3188 3188 3187 3187 3187 3187 3186 3185
3115 3120 3124 3128 3134 3139 3143 3147 3152 3156 3159 3164 3167 3169 3173 3175 3177 3179 3181 3182 3184 3185 3186 3187 3188 3189 3189 3188 3188 3188 3187 3187 3186
3110 3115 3120 3125 3130 3135 3139 3145 3150 3154 3159 3162 3165 3168 3171 3175 3177 3179 3180 3182 3184 3185 3187 3188 3189 3189 3189 3189 3188 3188 3187 3187 3186
3105 3110 3115 3121 3126 3131 3136 3141 3147 3151 3157 3160 3164 3167 3171 3174 3176 3178 3180 3182 3184 3185 3187 3188 3189 3189 3190 3189 3189 3189 3188 3188 3187
3101 3105 3111 3116 3122 3126 3133 3138 3143 3148 3153 3158 3161 3165 3168 3172 3174 3178 3179 3181 3183 3184 3186 3188 3189 3189 3190 3190 3190 3189 3189 3189 3189
3095 3100 3106 3113 3118 3123 3128 3134 3139 3143 3149 3153 3157 3162 3166 3169 3173 3176 3178 3180 3182 3184 3185 3187 3188 3189 3189 3190 3190 3189 3189 3189 3189
3090 3094 3102 3108 3113 3118 3123 3129 3134 3139 3146 3150 3155 3159 3164 3165 3169 3173 3176 3179 3181 3182 3184 3186 3187 3188 3189 3189 3190 3190 3189 3189 3189
3085 3090 3097 3103 3109 3115 3120 3124 3129 3134 3141 3147 3151 3154 3158 3162 3166 3169 3173 3176 3179 3181 3183 3185 3186 3187 3188 3189 3189 3189 3190 3190 3190
3079 3086 3093 3099 3105 3109 3115 3120 3125 3130 3137 3143 3147 3150 3157 3160 3163 3166 3170 3173 3176 3179 3181 3183 3184 3185 3186 3187 3188 3189 3189 3190 3191
3074 3080 3088 3094 3099 3105 3110 3115 3121 3127 3131 3137 3143 3147 3152 3156 3159 3163 3167 3170 3173 3176 3179 3181 3182 3184 3185 3186 3187 3188 3189 3189 3190